Погода в Парковом

Россия / Республика Крым     44°24′24″N   33°54′33″E
темп.,
°C
ветер,
м/с
пор.,
м/с
влажн.,
%
обл.,
%
осадки,
мм/ч
давл.,
гПа
погр.,
м
23 апреля, пт
пт2300:00+5ююз11720 0.0 102416
03:00+5ююв127955 0.0 102422
06:00+5вюв228084 0.0 102429
09:00+9юв3461100 0.0 1023481
12:00+11юв345498 0.0 1022705
15:00+12юв345399 0.0 1021718
18:00+10юв3363100 0.0 1019216
21:00+8ю1372100 0.2 1020259
24 апреля, сб
сб2400:00+8ю117434 0.0 101928
03:00+6з249548 0.0 1019109
06:00+6ссз459191 0.1 1020404
09:00+8с33711 0.1 1021476
12:00+12вюв02523 0.0 10211174
15:00+12сз03455 0.0 10211559
18:00+9ссв1262100 0.0 1022670
21:00+6ссв1281100 0.0 102461
25 апреля, вс
вс2500:00+6св227199 0.0 102465
03:00+5св226573 0.0 102333
06:00+4св2365100 0.0 102252
09:00+8в3355100 0.0 1020570
12:00+10в3347100 0.0 10191085
15:00+9в3454100 0.0 1018973
18:00+8всв1360100 0.0 1017797
21:00+4вюв127799 0.0 101839
26 апреля, пн
пн2600:00+3зюз1180100 0.0 101728
03:00+3с1179100 0.0 101616
06:00+3с0167100 0.0 101627
09:00+8сз1240100 0.0 1015564
12:00+12зсз14367 0.0 10151209
15:00+12сз35459 0.0 10151496
18:00+9сз34525 0.0 1017736
21:00+4ссз22785 0.0 101943
27 апреля, вт
вт2700:00+4с22825 0.0 101924
03:00+3вюв22825 0.0 101841
06:00+4вюв349262 0.0 1017241
09:00+8вюв33729 0.0 1017422
12:00+12ю234692 0.0 10161008
15:00+12з345180 0.0 10151011
18:00+10юв1165100 0.0 1016407
21:00+6вюв3589100 0.0 1018215